GW5617 Weather Reports


time (UTC)temp
F
wind
direction
speed
knots
gust
knots
rain 1hr
in
rain 24hr
in
rain mn
in
humidity
%
barometer
mb
20260505011517 58 325 5.2 14.8 0.00 0.00 0.00 41 1006.8
20260505010022 59 347 4.3 10.4 0.00 0.00 0.00 38 1006.8
20260505004526 60 306 4.3 10.4 0.00 0.00 0.00 37 1006.7
20260505003025 62 300 4.3 11.3 0.00 0.00 0.00 35 1006.1
20260505001529 63 56 4.3 11.3 0.00 0.00 0.00 33 1005.7
20260505000018 65 219 6.1 13.0 0.00 0.00 0.00 32 1005.5
20260504234523 66 58 3.5 11.3 0.00 0.00 0.00 32 1005.2
20260504233024 67 358 1.7 11.3 0.00 0.00 0.00 32 1005.0
20260504231527 69 336 4.3 12.2 0.00 0.00 0.00 30 1004.8
20260504230017 69 25 4.3 12.2 0.00 0.00 0.00 31 1004.5
20260504224521 70 311 4.3 15.6 0.00 0.00 0.00 30 1004.2
20260504223022 71 346 5.2 14.8 0.00 0.00 0.00 30 1003.8
20260504221523 72 2 4.3 11.3 0.00 0.00 0.00 29 1003.7
20260504220015 72 274 5.2 13.0 0.00 0.00 0.00 29 1003.6
20260504214518 73 295 3.5 11.3 0.00 0.00 0.00 29 1003.4
20260504213023 74 309 5.2 8.7 0.00 0.00 0.00 27 1003.1
20260504211524 75 324 4.3 14.8 0.00 0.00 0.00 28 1003.0
20260504210031 76 297 2.6 7.8 0.00 0.00 0.00 29 1002.8
20260504204512 76 291 3.5 12.2 0.00 0.00 0.00 29 1002.7
20260504203024 76 316 3.5 9.6 0.00 0.00 0.00 30 1002.8
20260504201521 76 302 4.3 8.7 0.00 0.00 0.00 32 1002.6
20260504200026 76 329 4.3 10.4 0.00 0.00 0.00 35 1002.5
20260504194533 77 307 4.3 9.6 0.00 0.00 0.00 34 1002.4
20260504193017 77 294 5.2 12.2 0.00 0.00 0.00 34 1002.3
20260504191523 77 349 3.5 9.6 0.00 0.00 0.00 35 1002.2
20260504190021 78 321 2.6 7.8 0.00 0.00 0.00 36 1002.0
20260504184530 77 344 4.3 7.8 0.00 0.00 0.00 34 1001.9
20260504183031 77 34 4.3 10.4 0.00 0.00 0.00 35 1001.9
20260504181527 78 305 3.5 13.0 0.00 0.00 0.00 32 1001.8
20260504180021 79 280 4.3 8.7 0.00 0.00 0.00 29 1001.7
20260504174526 79 307 4.3 10.4 0.00 0.00 0.00 30 1001.6
20260504173026 79 326 2.6 7.0 0.00 0.00 0.00 34 1001.6
20260504171529 78 317 2.6 6.1 0.00 0.00 0.00 31 1001.7
20260504081524 52 218 0.9 2.6 0.00 0.00 0.00 67 1003.4
20260504044524 49 294 0.0 0.0 0.00 0.00 0.00 77 1006.2
20260504043025 50 294 0.0 0.0 0.00 0.00 0.00 76 1006.3
20260504041527 51 294 0.0 0.0 0.00 0.00 0.00 75 1006.5
20260504040015 51 294 0.0 0.0 0.00 0.00 0.00 74 1006.7
20260504034520 52 294 0.0 0.0 0.00 0.00 0.00 73 1007.0
20260504033022 53 294 0.0 0.9 0.00 0.00 0.00 71 1007.1
20260504031524 53 294 0.0 0.0 0.00 0.00 0.00 70 1007.1
20260504030028 54 294 0.0 0.9 0.00 0.00 0.00 68 1007.3
20260504024516 55 294 0.0 0.0 0.00 0.00 0.00 66 1007.4
20260504023020 55 294 0.0 0.9 0.00 0.00 0.00 65 1007.4
20260504021528 55 296 0.0 0.0 0.00 0.00 0.00 67 1007.4
20260504020029 56 296 0.0 0.0 0.00 0.00 0.00 65 1007.6
20260504014541 58 296 0.0 0.0 0.00 0.00 0.00 63 1007.7
20260504013016 60 296 0.0 0.0 0.00 0.00 0.00 61 1007.7